Worcester, MA

7:26 PM EDT on March 29, 2017 (GMT -0400)
Worcester Regional

Weather History for KORH - September, 2011

Change the Weather History Date:

Tuesday, September 13, 2011

  Actual Average Record
Temperature  
Mean Temperature 70 °F 62 °F  
Max Temperature 79 °F 71 °F 89 °F (1957)
Min Temperature 61 °F 54 °F 33 °F (1943)
Degree Days  
Heating Degree Days 0 4  
Month to date heating degree days 20 37  
Since 1 July heating degree days 26 76  
Cooling Degree Days 5 1  
Month to date cooling degree days 35 29  
Year to date cooling degree days 584 455  
Growing Degree Days 19 (Base 50)    
Moisture  
Dew Point 62 °F    
Average Humidity 77    
Maximum Humidity 100    
Minimum Humidity 54    
Precipitation  
Precipitation 0.00 in 0.13 in 2.57 in (1974)
Month to date precipitation 4.88 1.51  
Year to date precipitation 48.98 32.87  
Snow  
Snow 0.00 in 0.00 in 0.00 in (2002)
Month to date snowfall 0.0 0.0  
Since 1 July snowfall 0.0 0.0  
Since 1 September snowfall 0.0 0.0  
Snow Depth 0.00 in    
Sea Level Pressure  
Sea Level Pressure 29.92 in    
Wind  
Wind Speed 11 mph (WSW)    
Max Wind Speed 21 mph    
Max Gust Speed 25 mph    
Visibility 8 miles    
Events      
T = Trace of Precipitation, MM = Missing Value Source: NWS Daily Summary

Daily Weather History Graph

Daily Weather History Graph

Search for Another Location

Airport or City:

Trip Planner

Search our weather history database for the weather conditions in past years. The results will help you decide how hot, cold, wet, or windy it might be!

Date:

Astronomy

Sep. 13, 2011 Rise Set
Actual Time 6:25 AM EDT 7:01 PM EDT
Civil Twilight 5:56 AM EDT 7:29 PM EDT
Nautical Twilight 5:23 AM EDT 8:02 PM EDT
Astronomical Twilight 4:48 AM EDT 8:37 PM EDT
Moon 7:12 PM EDT (9/13) 7:38 AM EDT (9/13)
Length of Visible Light 13h 32m
Length of Day
12h 36m
Full, 99% of the Moon is Illuminated
Sep 13
Full
Sep 20
Last Quarter
Sep 27
New
Oct 3
First Quarter
Oct 11
Full

Hourly Weather History & Observations

Time (EDT) Temp. Dew Point Humidity Pressure Visibility Wind Dir Wind Speed Gust Speed Precip Events Conditions
12:54 AM 64.4 °F 62.6 °F 94% 29.98 in 8.0 mi West 8.1 mph - N/A   Clear
1:54 AM 64.0 °F 62.1 °F 93% 29.96 in 6.0 mi West 8.1 mph - N/A   Clear
2:54 AM 63.0 °F 62.1 °F 97% 29.96 in 6.0 mi WSW 6.9 mph - N/A   Clear
3:54 AM 63.0 °F 62.1 °F 97% 29.95 in 5.0 mi West 8.1 mph - N/A   Clear
4:54 AM 63.0 °F 61.0 °F 93% 29.94 in 6.0 mi West 8.1 mph - N/A   Clear
5:54 AM 62.1 °F 61.0 °F 96% 29.94 in 4.0 mi West 6.9 mph - N/A   Clear
6:39 AM 60.8 °F 60.8 °F 100% 29.94 in 2.5 mi West 5.8 mph - N/A   Clear
6:54 AM 62.1 °F 61.0 °F 96% 29.94 in 2.0 mi West 5.8 mph - N/A   Clear
7:34 AM 62.6 °F 62.6 °F 100% 29.95 in 1.0 mi Variable 4.6 mph - N/A   Clear
7:54 AM 64.0 °F 62.1 °F 93% 29.95 in 1.0 mi WSW 5.8 mph - N/A   Clear
8:13 AM 64.4 °F 62.6 °F 94% 29.95 in 3.0 mi WSW 6.9 mph - N/A   Clear
8:54 AM 66.0 °F 62.1 °F 87% 29.94 in 7.0 mi WSW 10.4 mph - N/A   Clear
9:54 AM 69.1 °F 62.1 °F 78% 29.96 in 10.0 mi West 8.1 mph - N/A   Clear
10:54 AM 73.4 °F 62.6 °F 69% 29.95 in 10.0 mi SW 12.7 mph - N/A   Clear
11:54 AM 75.9 °F 61.0 °F 60% 29.93 in 10.0 mi SW 13.8 mph 17.3 mph N/A   Scattered Clouds
12:54 PM 78.1 °F 60.1 °F 54% 29.91 in 10.0 mi SW 13.8 mph 17.3 mph N/A   Partly Cloudy
1:54 PM 78.8 °F 60.8 °F 54% 29.91 in 10.0 mi West 13.8 mph - N/A   Partly Cloudy
2:54 PM 78.1 °F 61.0 °F 56% 29.88 in 10.0 mi SW 12.7 mph 23.0 mph N/A   Partly Cloudy
3:54 PM 78.1 °F 60.1 °F 54% 29.88 in 10.0 mi SW 15.0 mph 20.7 mph N/A   Clear
4:54 PM 77.0 °F 60.1 °F 56% 29.86 in 10.0 mi SW 13.8 mph 20.7 mph N/A   Clear
5:54 PM 75.0 °F 62.1 °F 64% 29.87 in 10.0 mi SSW 11.5 mph - N/A   Clear
6:54 PM 73.0 °F 62.1 °F 68% 29.88 in 10.0 mi SSW 12.7 mph 17.3 mph N/A   Clear
7:54 PM 71.6 °F 62.6 °F 73% 29.89 in 10.0 mi SSW 11.5 mph - N/A   Clear
8:54 PM 69.1 °F 63.0 °F 81% 29.90 in 10.0 mi SSW 15.0 mph - N/A   Clear
9:54 PM 68.0 °F 63.0 °F 84% 29.89 in 10.0 mi SW 13.8 mph - N/A   Clear
10:54 PM 66.9 °F 63.0 °F 87% 29.88 in 10.0 mi SW 16.1 mph - N/A   Clear
11:54 PM 66.9 °F 63.0 °F 87% 29.88 in 10.0 mi SW 16.1 mph 25.3 mph N/A   Clear